Temp
-8 -8 -7 -7 -7 -6 -6 -6 -5 -5 -5 -4 -4 -4 -5 -6 -6 -7 -8 -8 -8 -9 -10 -9 -10 -10 -9 -9 -9 -8 -9 -9 -9 -9 -9 -10 -10 -10 -10 -10 -9 -9 -9 -9 -9
-9 -8 -8 -7 -7 -7 -6 -6 -6 -5 -5 -5 -4 -5 -5 -6 -7 -7 -8 -8 -8 -9 -11 -10 -9 -9 -9 -8 -9 -9 -9 -9 -9 -9 -9 -10 -11 -11 -11 -10 -10 -10 -10 -9 -10
-9 -8 -8 -8 -7 -7 -7 -7 -6 -5 -5 -5 -5 -6 -6 -6 -7 -7 -8 -9 -9 -10 -11 -10 -10 -9 -8 -9 -9 -9 -9 -10 -9 -10 -11 -11 -11 -11 -11 -10 -10 -10 -10 -10 -10
-9 -9 -8 -8 -7 -7 -7 -7 -6 -6 -5 -5 -5 -6 -6 -6 -6 -7 -8 -9 -10 -11 -12 -9 -11 -11 -10 -10 -9 -10 -9 -10 -10 -11 -11 -11 -11 -11 -11 -11 -11 -11 -11 -11 -10
-9 -9 -9 -8 -8 -7 -7 -7 -7 -6 -6 -6 -6 -6 -6 -7 -7 -7 -8 -9 -10 -11 -11 -10 -10 -9 -10 -9 -10 -10 -10 -10 -10 -10 -11 -10 -10 -11 -11 -11 -11 -11 -11 -12 -11
-8 -9 -9 -8 -8 -8 -7 -7 -7 -6 -6 -6 -6 -6 -6 -7 -7 -8 -8 -9 -10 -11 -10 -10 -10 -9 -10 -9 -10 -9 -10 -9 -10 -10 -11 -11 -11 -10 -11 -11 -11 -11 -11 -11 -12
-9 -9 -9 -9 -9 -8 -8 -7 -7 -6 -6 -6 -7 -7 -7 -7 -7 -8 -9 -10 -11 -11 -9 -10 -10 -10 -10 -10 -9 -10 -10 -10 -10 -10 -11 -11 -11 -11 -11 -11 -11 -11 -11 -11 -11
-9 -9 -9 -9 -9 -8 -8 -7 -7 -6 -6 -7 -7 -7 -7 -8 -7 -8 -9 -10 -10 -9 -10 -10 -10 -11 -11 -11 -10 -11 -11 -11 -11 -10 -11 -11 -10 -10 -11 -11 -10 -11 -11 -11 -11
-9 -9 -9 -9 -9 -8 -8 -7 -7 -7 -7 -7 -7 -7 -8 -8 -8 -8 -8 -9 -9 -10 -10 -11 -11 -11 -11 -11 -11 -10 -10 -11 -11 -11 -10 -11 -10 -11 -11 -11 -9 -10 -11 -12 -12
-9 -9 -9 -9 -9 -8 -7 -7 -7 -7 -7 -7 -7 -8 -8 -9 -9 -8 -9 -9 -9 -10 -11 -11 -12 -12 -11 -11 -10 -10 -11 -11 -11 -11 -11 -10 -10 -11 -11 -10 -10 -11 -11 -12 -12
-9 -9 -9 -9 -9 -9 -8 -7 -7 -7 -7 -7 -7 -7 -8 -8 -9 -9 -9 -9 -10 -11 -11 -12 -11 -11 -10 -11 -10 -11 -11 -11 -11 -11 -11 -11 -11 -11 -11 -10 -10 -11 -12 -13 -14
-9 -9 -9 -9 -9 -8 -8 -8 -8 -8 -7 -7 -8 -8 -8 -8 -9 -9 -9 -9 -10 -10 -10 -11 -11 -11 -11 -11 -11 -11 -11 -11 -11 -11 -11 -12 -12 -12 -12 -10 -10 -11 -12 -13 -15
-9 -9 -9 -9 -9 -9 -8 -8 -8 -8 -8 -8 -8 -8 -8 -8 -9 -9 -9 -10 -9 -10 -9 -11 -11 -11 -10 -11 -11 -11 -11 -11 -11 -10 -11 -12 -12 -12 -12 -11 -11 -12 -13 -13 -13
-9 -9 -9 -9 -9 -9 -8 -8 -8 -8 -8 -8 -8 -8 -8 -9 -10 -10 -10 -10 -10 -9 -10 -11 -11 -11 -10 -10 -11 -10 -10 -11 -11 -12 -12 -12 -12 -12 -12 -11 -11 -12 -13 -14 -13
-10 -10 -10 -10 -9 -8 -8 -8 -8 -8 -8 -9 -9 -8 -9 -9 -10 -11 -10 -10 -10 -10 -11 -11 -10 -10 -10 -10 -10 -10 -11 -10 -11 -12 -12 -13 -12 -12 -12 -12 -12 -13 -13 -14 -13
-10 -10 -10 -9 -9 -8 -9 -9 -8 -8 -9 -10 -10 -9 -10 -10 -11 -11 -11 -11 -10 -11 -10 -10 -11 -10 -10 -10 -10 -10 -11 -11 -12 -12 -12 -12 -12 -12 -13 -13 -13 -13 -13 -14 -13
-10 -10 -10 -10 -9 -9 -9 -9 -9 -9 -10 -10 -10 -10 -10 -11 -11 -11 -11 -10 -10 -10 -10 -11 -11 -11 -10 -9 -10 -10 -11 -12 -12 -12 -11 -11 -11 -12 -12 -13 -13 -13 -13 -14 -14
-10 -11 -10 -9 -9 -9 -10 -10 -10 -10 -11 -10 -10 -11 -11 -11 -10 -11 -10 -10 -10 -10 -10 -11 -11 -10 -9 -9 -9 -10 -11 -12 -12 -12 -12 -11 -12 -12 -13 -13 -13 -13 -13 -14 -14
-11 -11 -10 -10 -10 -9 -10 -10 -11 -11 -11 -10 -11 -11 -11 -11 -11 -10 -10 -9 -9 -10 -10 -10 -10 -10 -10 -10 -10 -11 -11 -12 -12 -13 -13 -12 -12 -12 -13 -13 -13 -14 -14 -14 -14
-10 -11 -10 -10 -10 -10 -10 -11 -11 -11 -11 -10 -11 -11 -11 -10 -10 -11 -10 -10 -10 -10 -9 -10 -10 -9 -10 -10 -11 -11 -11 -11 -12 -12 -12 -12 -13 -13 -13 -13 -13 -14 -14 -14 -14
-10 -11 -10 -10 -10 -10 -10 -10 -11 -10 -10 -10 -10 -10 -10 -10 -10 -10 -10 -10 -9 -10 -9 -9 -9 -9 -10 -11 -11 -11 -11 -11 -11 -11 -12 -12 -12 -13 -14 -14 -14 -14 -14 -14 -14
-11 -10 -10 -10 -10 -10 -11 -11 -11 -11 -11 -10 -10 -10 -10 -10 -10 -10 -10 -9 -9 -9 -9 -9 -9 -9 -10 -10 -10 -9 -10 -10 -11 -11 -12 -12 -13 -13 -14 -14 -14 -14 -14 -15 -15
-11 -10 -10 -10 -10 -11 -11 -11 -10 -10 -10 -10 -10 -10 -10 -10 -10 -10 -9 -9 -9 -9 -9 -10 -9 -9 -10 -10 -10 -11 -11 -11 -11 -12 -12 -13 -13 -14 -14 -14 -14 -15 -15 -15 -15
-10 -10 -11 -11 -11 -11 -11 -10 -10 -11 -10 -10 -11 -11 -10 -9 -9 -9 -9 -9 -9 -9 -10 -10 -10 -10 -10 -11 -11 -11 -11 -11 -12 -12 -13 -14 -14 -14 -15 -15 -15 -16 -16 -15 -16
-10 -10 -10 -11 -11 -11 -11 -11 -11 -10 -9 -9 -10 -10 -10 -10 -9 -8 -9 -9 -9 -10 -10 -10 -10 -10 -10 -11 -11 -12 -12 -12 -12 -13 -13 -14 -14 -14 -15 -15 -16 -16 -16 -16 -16
-10 -10 -11 -10 -11 -11 -11 -11 -11 -10 -10 -10 -10 -10 -10 -10 -9 -9 -9 -9 -9 -9 -10 -10 -10 -10 -11 -11 -12 -12 -12 -13 -13 -14 -14 -15 -15 -15 -15 -16 -16 -16 -17 -17 -17
-11 -11 -11 -10 -9 -10 -11 -11 -10 -10 -10 -10 -9 -9 -10 -10 -10 -10 -10 -10 -10 -10 -10 -10 -11 -11 -11 -11 -12 -13 -13 -13 -13 -14 -14 -15 -15 -16 -16 -16 -16 -17 -17 -17 -18
Height
5909 5909 5910 5911 5910 5910 5910 5909 5907 5904 5902 5901 5900 5899 5899 5899 5900 5900 5901 5902 5902 5901 5902 5903 5903 5904 5902 5905 5903 5902 5903 5903 5903 5901 5899 5897 5896 5896 5895 5894 5893 5891 5890 5889 5887
5907 5908 5908 5909 5910 5910 5909 5907 5906 5903 5901 5900 5899 5899 5898 5899 5901 5901 5902 5903 5904 5903 5905 5903 5904 5905 5909 5907 5903 5904 5902 5905 5902 5900 5898 5897 5897 5896 5895 5894 5893 5890 5888 5886 5886
5905 5906 5906 5907 5908 5909 5908 5907 5904 5902 5900 5899 5899 5898 5899 5900 5901 5901 5903 5905 5906 5906 5904 5905 5905 5906 5910 5907 5903 5902 5899 5899 5901 5898 5899 5895 5895 5895 5894 5892 5891 5889 5886 5883 5881
5902 5904 5906 5907 5907 5907 5907 5905 5903 5900 5900 5899 5899 5899 5899 5901 5903 5902 5903 5905 5906 5907 5906 5906 5906 5907 5908 5906 5903 5902 5903 5904 5899 5896 5898 5896 5897 5895 5892 5890 5887 5884 5881 5879 5876
5899 5901 5903 5904 5904 5905 5905 5903 5901 5900 5900 5899 5899 5899 5900 5901 5903 5903 5903 5906 5907 5908 5908 5905 5907 5911 5912 5908 5906 5905 5900 5899 5898 5894 5898 5901 5896 5894 5891 5889 5887 5883 5879 5875 5873
5895 5897 5899 5901 5902 5902 5903 5901 5900 5900 5900 5899 5900 5900 5902 5903 5904 5903 5904 5906 5908 5909 5907 5907 5910 5911 5911 5909 5907 5905 5907 5902 5899 5898 5899 5896 5892 5889 5883 5882 5883 5879 5874 5871 5867
5893 5894 5896 5898 5899 5900 5900 5900 5899 5899 5900 5899 5900 5901 5902 5905 5904 5904 5905 5907 5908 5908 5909 5911 5910 5911 5910 5910 5905 5904 5904 5900 5900 5900 5896 5892 5889 5886 5882 5879 5875 5871 5870 5869 5863
5891 5892 5893 5896 5897 5898 5898 5898 5899 5899 5900 5900 5901 5903 5903 5905 5905 5905 5905 5905 5906 5909 5910 5910 5909 5908 5908 5906 5904 5902 5901 5898 5896 5897 5894 5891 5888 5885 5881 5878 5868 5861 5863 5860 5858
5890 5890 5891 5893 5895 5896 5896 5897 5898 5899 5900 5901 5903 5903 5904 5907 5907 5907 5906 5907 5907 5908 5909 5908 5909 5907 5905 5903 5903 5901 5902 5900 5899 5894 5887 5884 5882 5878 5874 5871 5863 5855 5854 5852 5849
5887 5888 5889 5892 5893 5894 5894 5895 5897 5898 5899 5901 5903 5905 5904 5905 5907 5908 5909 5909 5910 5909 5907 5908 5904 5901 5901 5901 5899 5899 5897 5897 5895 5892 5887 5881 5876 5874 5872 5866 5857 5849 5849 5847 5846
5885 5886 5888 5891 5892 5892 5894 5895 5898 5899 5900 5902 5903 5903 5903 5904 5905 5908 5910 5910 5909 5909 5908 5907 5905 5902 5902 5901 5898 5896 5897 5897 5892 5884 5885 5881 5876 5872 5865 5860 5852 5845 5842 5842 5839
5884 5884 5886 5889 5890 5892 5893 5894 5897 5900 5901 5902 5904 5904 5904 5905 5903 5908 5909 5909 5908 5908 5909 5909 5907 5904 5899 5898 5897 5895 5893 5890 5884 5878 5878 5872 5871 5868 5863 5853 5850 5842 5842 5839 5837
5883 5884 5886 5888 5890 5891 5890 5891 5893 5896 5901 5902 5903 5904 5906 5906 5905 5906 5906 5907 5909 5909 5907 5906 5905 5904 5900 5900 5897 5893 5892 5889 5882 5875 5870 5865 5862 5862 5858 5855 5851 5846 5842 5840 5838
5882 5884 5885 5887 5889 5888 5889 5894 5895 5897 5899 5902 5903 5904 5905 5904 5906 5906 5905 5907 5907 5905 5903 5905 5903 5901 5899 5897 5895 5890 5884 5882 5875 5872 5867 5863 5859 5857 5854 5851 5851 5845 5840 5835 5833
5881 5882 5883 5885 5886 5889 5893 5895 5897 5901 5899 5903 5902 5902 5903 5904 5903 5905 5904 5905 5906 5903 5903 5903 5900 5897 5895 5892 5889 5887 5881 5876 5872 5869 5866 5862 5859 5855 5850 5846 5844 5841 5837 5833 5829
5879 5880 5882 5884 5887 5890 5893 5895 5898 5899 5898 5900 5903 5902 5903 5902 5901 5902 5904 5904 5903 5903 5902 5900 5896 5894 5891 5889 5885 5883 5883 5877 5871 5866 5863 5859 5855 5851 5846 5844 5841 5836 5832 5829 5825
5877 5877 5880 5883 5886 5889 5891 5895 5898 5898 5899 5902 5904 5905 5905 5903 5903 5902 5903 5903 5902 5901 5900 5898 5895 5890 5884 5885 5882 5879 5876 5871 5869 5862 5858 5854 5850 5847 5844 5840 5837 5834 5829 5826 5822
5875 5876 5879 5882 5885 5888 5892 5895 5898 5898 5898 5900 5900 5902 5906 5903 5900 5901 5901 5901 5900 5900 5898 5896 5891 5886 5880 5880 5878 5872 5869 5865 5861 5856 5852 5850 5846 5844 5840 5838 5835 5831 5826 5823 5819
5872 5874 5878 5881 5884 5887 5892 5895 5897 5896 5897 5899 5900 5900 5900 5902 5902 5900 5900 5899 5900 5899 5897 5892 5887 5883 5876 5873 5872 5868 5864 5862 5857 5853 5849 5846 5842 5838 5836 5834 5831 5827 5822 5818 5813
5872 5874 5877 5880 5883 5888 5892 5893 5895 5895 5896 5897 5897 5900 5899 5899 5900 5899 5899 5898 5894 5894 5889 5885 5882 5882 5878 5871 5868 5864 5863 5859 5856 5851 5846 5841 5837 5834 5833 5830 5826 5820 5817 5813 5809
5872 5874 5876 5879 5883 5889 5892 5892 5891 5894 5891 5895 5896 5899 5900 5898 5898 5898 5897 5896 5893 5888 5886 5882 5879 5878 5876 5871 5866 5864 5860 5857 5853 5848 5843 5838 5836 5832 5829 5825 5821 5817 5813 5809 5805
5870 5873 5876 5878 5884 5889 5890 5890 5892 5891 5890 5893 5895 5897 5897 5895 5895 5895 5892 5889 5888 5885 5883 5877 5873 5872 5871 5867 5863 5861 5858 5853 5849 5846 5841 5837 5835 5829 5825 5821 5817 5812 5807 5803 5799
5870 5872 5876 5879 5883 5886 5887 5888 5890 5889 5891 5892 5893 5894 5895 5894 5891 5888 5887 5886 5883 5881 5878 5873 5870 5869 5867 5864 5859 5856 5854 5850 5847 5843 5838 5835 5831 5826 5822 5817 5813 5808 5804 5799 5795
5869 5871 5874 5877 5881 5885 5886 5887 5887 5887 5888 5890 5892 5893 5890 5888 5887 5887 5885 5884 5880 5878 5876 5872 5867 5865 5863 5860 5857 5855 5851 5848 5844 5840 5836 5832 5827 5823 5818 5812 5808 5803 5797 5791 5786
5866 5869 5870 5876 5881 5884 5884 5883 5884 5885 5886 5889 5890 5889 5888 5885 5884 5883 5882 5881 5878 5875 5873 5870 5866 5863 5861 5857 5854 5851 5849 5845 5839 5836 5832 5828 5823 5817 5812 5806 5801 5798 5794 5788 5782
5868 5868 5869 5874 5879 5880 5880 5884 5885 5884 5887 5887 5887 5887 5885 5883 5881 5880 5878 5877 5876 5873 5869 5867 5864 5861 5859 5856 5852 5847 5845 5842 5839 5833 5829 5824 5819 5813 5807 5801 5796 5792 5787 5782 5777
5866 5867 5869 5870 5876 5880 5881 5882 5883 5883 5885 5883 5884 5884 5883 5882 5880 5878 5874 5872 5870 5868 5867 5864 5861 5858 5855 5852 5851 5847 5841 5837 5834 5830 5826 5820 5815 5810 5804 5796 5791 5784 5780 5774 5770
Wind_Speed
5 7 7 7 3 6 10 15 16 11 8 6 6 5 1 4 7 10 11 13 16 16 15 11 11 9 6 6 12 11 14 18 8 12 14 13 14 13 13 14 15 15 16 15 13
7 4 3 2 5 10 13 16 16 10 7 5 4 2 3 7 10 13 11 13 16 14 11 8 6 4 3 2 11 10 13 8 8 11 11 12 14 14 15 15 18 20 22 23 23
13 11 10 12 10 13 13 13 15 9 6 3 1 3 6 9 13 14 13 15 16 13 11 5 5 7 6 6 12 7 15 15 12 4 7 11 13 14 13 13 17 19 20 23 25
18 14 15 12 11 13 13 14 14 8 5 1 2 7 9 9 13 15 17 18 19 18 13 6 5 6 12 20 13 20 19 29 27 3 11 12 12 18 18 17 19 19 23 25 29
19 17 15 13 15 13 13 16 15 7 3 2 5 8 10 11 11 16 20 18 19 19 16 8 6 7 8 16 29 27 13 32 26 32 31 32 20 16 20 26 25 22 22 27 35
13 17 18 14 16 16 17 13 10 5 3 5 8 9 12 12 11 16 18 18 20 15 13 5 6 6 4 17 22 22 22 23 26 34 37 38 27 17 13 34 39 31 27 28 30
9 16 16 18 16 15 12 9 6 5 5 8 9 11 12 12 12 13 16 18 17 16 8 2 11 13 15 15 21 24 25 27 31 35 38 39 27 22 30 45 46 34 26 28 26
10 10 16 17 16 12 9 5 4 5 8 10 10 12 14 10 10 11 14 16 11 4 5 11 20 20 21 25 22 22 26 28 32 34 37 33 34 34 31 34 48 34 24 21 25
10 10 9 11 15 11 5 5 6 8 10 11 14 14 15 10 8 7 8 7 9 8 16 19 15 15 13 18 21 23 20 25 27 34 40 39 38 32 39 31 33 25 22 19 18
10 9 8 11 10 6 6 8 11 14 13 13 15 14 17 14 8 7 6 7 7 12 15 12 15 18 19 18 13 19 25 30 32 35 34 38 34 35 37 40 28 19 31 26 15
9 7 12 12 6 8 7 9 10 11 12 11 13 13 16 15 10 5 5 7 9 17 11 2 9 18 16 19 18 21 25 30 37 36 30 28 29 33 32 34 24 21 24 4 31
7 6 12 10 7 6 9 10 9 10 12 14 11 8 9 11 12 3 5 7 13 14 3 9 14 20 27 23 23 26 29 31 33 32 27 32 31 30 25 22 15 7 15 26 21
6 9 10 12 12 13 14 16 16 15 12 12 11 11 9 10 10 8 6 2 6 9 7 18 17 17 14 20 24 29 32 35 31 36 30 33 36 31 27 26 29 39 30 23 16
9 13 8 9 12 19 17 14 15 14 13 10 8 7 9 11 12 15 14 9 4 4 11 9 8 13 12 21 24 31 33 23 29 33 39 30 31 35 35 30 24 25 26 15 19
11 15 18 14 16 13 12 14 12 15 19 13 6 9 13 13 14 18 16 14 9 10 8 12 16 19 23 24 25 22 14 30 32 26 26 27 31 28 31 25 11 22 24 14 21
12 16 17 18 11 13 13 13 15 17 16 18 12 12 13 14 13 11 14 16 16 15 15 19 24 26 26 26 27 23 20 16 18 25 19 16 18 26 17 18 24 22 16 14 18
13 17 20 13 15 16 16 17 19 19 19 18 13 8 7 7 5 3 14 16 21 19 18 21 23 28 33 27 29 27 18 21 22 23 24 25 26 19 24 25 23 20 18 15 23
12 19 18 14 16 20 20 17 19 17 17 11 11 9 0 5 4 12 18 18 20 21 26 22 24 28 33 30 26 22 19 26 27 27 28 30 21 21 19 21 25 21 18 22 23
10 22 18 19 21 22 22 24 21 21 18 15 10 11 18 18 16 19 21 21 19 14 15 19 26 27 31 31 25 22 25 25 25 27 26 22 20 19 20 20 23 17 20 26 28
13 22 14 19 21 23 25 23 23 24 17 20 13 14 15 19 20 23 26 19 23 22 22 26 27 20 18 21 21 21 19 25 23 24 23 22 23 22 21 19 24 26 27 29 31
18 18 14 19 20 23 23 23 21 24 10 18 17 23 24 24 27 25 28 29 24 25 24 23 21 14 9 11 12 14 17 18 18 18 20 21 23 21 15 24 26 26 30 30 30
23 16 18 20 18 22 25 17 16 2 10 5 14 19 28 17 21 21 21 20 22 24 21 19 16 12 9 10 13 13 15 15 16 17 17 18 19 18 18 22 24 30 32 32 31
22 14 17 18 19 24 23 21 16 12 10 9 14 14 13 20 19 20 22 21 20 19 12 12 14 13 10 13 14 17 17 20 19 18 19 20 21 21 24 26 27 29 31 32 32
20 16 18 21 21 19 19 21 14 7 7 14 14 17 21 18 17 18 17 15 16 13 9 10 13 13 14 13 16 16 18 22 24 21 21 22 24 25 26 30 29 30 34 37 37
22 21 22 20 21 26 21 20 16 14 10 4 8 12 14 17 18 16 15 15 9 9 8 8 10 11 11 14 18 19 18 21 24 24 26 30 33 34 34 37 33 30 33 31 33
23 23 23 21 23 24 32 25 21 16 4 4 7 6 11 15 18 19 19 14 10 7 9 9 10 12 13 13 17 22 22 20 18 24 28 30 32 35 38 32 29 36 40 35 34
19 20 22 22 20 18 27 23 21 4 6 7 7 10 10 13 15 16 18 16 13 11 12 14 15 16 18 18 15 19 22 26 25 29 31 32 35 32 27 31 31 47 40 33 27
Wind_Direction
191 168 194 244 307 316 302 313 337 332 327 317 325 317 247 118 135 137 144 142 153 154 164 181 191 184 197 153 21 24 36 57 26 37 42 34 25 17 1 350 345 339 333 331 326
238 256 169 249 293 310 308 314 333 331 319 314 323 299 126 134 137 134 135 148 153 154 153 196 232 234 159 72 80 30 45 22 75 22 10 24 7 356 350 343 335 334 331 328 320
229 255 245 270 294 299 320 336 331 327 304 317 13 116 123 137 135 127 143 139 131 135 141 198 268 302 257 72 119 35 15 16 349 16 12 12 351 340 331 332 334 333 334 333 329
240 249 245 238 263 289 307 328 337 317 301 341 122 129 127 132 141 141 144 135 132 138 159 168 204 284 331 0 330 8 12 21 1 58 344 337 334 328 328 324 324 327 331 330 325
247 244 246 259 272 284 299 316 335 304 276 143 135 140 136 140 144 149 137 134 136 141 169 208 218 335 16 32 21 34 351 6 19 14 11 359 320 324 342 327 308 306 314 326 326
267 241 241 254 274 279 305 322 324 275 213 150 133 125 134 134 148 144 137 138 142 150 183 189 328 14 353 31 20 18 17 12 2 2 351 348 352 310 308 336 327 293 294 315 321
270 247 250 248 269 288 304 309 298 234 183 147 138 131 124 134 147 135 134 141 155 174 165 343 42 46 30 16 14 4 356 4 357 350 343 335 339 316 289 308 310 288 282 305 309
268 263 241 250 261 291 297 247 228 189 171 148 142 136 122 125 136 134 142 161 157 129 103 80 60 38 20 8 358 356 357 357 343 337 332 333 330 329 320 311 340 281 310 292 287
257 267 227 229 242 277 256 200 186 167 169 148 144 135 121 120 127 139 143 125 120 104 79 62 33 8 354 347 337 332 339 339 335 332 328 329 337 339 332 338 341 272 301 288 291
259 264 213 211 215 232 208 182 177 171 168 157 151 145 142 135 131 120 112 108 116 99 75 35 344 338 333 328 330 329 329 326 322 321 316 324 327 325 330 342 329 282 276 289 305
257 257 208 204 216 197 195 177 182 181 171 156 160 162 155 148 130 130 113 111 132 133 131 65 345 325 326 325 328 327 311 310 308 297 308 317 320 313 325 335 323 299 279 341 13
257 242 207 204 179 209 167 160 190 172 171 150 144 149 160 142 113 126 144 141 161 179 136 19 339 323 302 306 313 306 306 313 321 300 315 319 320 324 344 353 270 318 350 348 21
205 174 186 191 205 186 191 181 175 177 173 147 147 146 157 133 139 105 76 59 255 234 319 7 325 342 340 295 313 305 287 288 303 313 316 321 316 317 324 357 308 316 333 359 359
212 183 171 170 191 200 200 182 172 174 157 141 154 150 123 134 88 62 55 19 286 355 27 360 341 312 312 324 317 321 302 310 312 313 317 313 317 327 323 337 334 325 353 344 346
205 204 205 195 213 209 181 179 170 171 128 128 174 143 126 130 85 33 15 360 353 351 326 315 333 329 323 323 327 330 320 327 318 321 319 310 308 316 326 329 341 342 351 337 348
197 207 185 199 202 177 175 171 179 150 107 90 97 93 91 72 62 44 335 340 321 315 308 321 325 324 326 318 313 327 334 341 325 328 333 318 318 318 331 344 347 358 356 335 345
209 223 194 203 189 171 170 162 146 137 96 84 85 57 64 74 99 177 290 309 300 305 305 313 308 316 316 329 326 333 340 339 326 321 327 331 324 328 313 322 334 346 351 333 345
212 206 182 197 176 174 166 145 149 141 138 123 143 129 256 208 276 243 276 294 298 304 310 312 304 311 317 325 330 328 331 329 319 323 320 323 322 332 329 338 335 332 334 343 339
197 182 197 188 178 174 158 151 151 158 157 172 196 201 213 215 247 272 280 296 305 303 278 289 309 311 316 319 324 321 319 327 318 321 314 321 316 333 319 329 328 328 332 339 342
185 182 196 183 185 173 156 166 173 176 179 180 177 209 223 237 245 251 276 295 305 306 315 312 304 311 320 311 315 314 323 318 314 306 305 314 317 323 326 326 329 335 337 337 335
188 174 198 184 188 179 177 179 207 182 211 209 196 208 230 244 248 261 276 272 294 308 310 305 304 325 323 299 296 294 309 310 316 314 315 317 323 328 316 326 331 329 327 329 330
186 202 191 187 181 178 188 204 206 234 263 269 232 226 224 256 259 260 283 301 307 301 310 305 309 318 330 314 306 316 325 329 326 331 328 327 331 335 332 327 324 321 324 324 324
193 198 190 189 171 183 197 207 202 207 236 270 245 254 244 251 279 295 299 309 303 308 312 301 298 311 323 326 327 327 325 326 333 334 332 332 333 327 323 315 314 316 318 317 316
191 192 193 193 172 187 186 183 191 200 242 276 279 268 273 284 295 297 297 301 299 301 317 298 298 314 327 322 316 321 328 326 330 337 333 333 328 325 317 315 315 320 322 319 318
189 199 203 185 180 180 207 206 215 243 257 293 299 266 271 281 285 291 300 306 307 300 302 300 311 319 317 313 319 321 326 328 327 327 329 328 329 324 317 313 310 315 324 316 317
198 200 216 209 180 203 226 205 218 241 356 284 267 271 290 295 300 304 309 305 295 302 318 324 324 324 313 315 320 321 328 324 330 329 327 326 323 319 318 312 306 315 321 316 319
187 216 215 229 205 207 203 210 214 245 310 291 296 301 298 297 298 297 298 300 298 323 325 320 323 323 320 323 329 335 324 320 324 327 329 326 325 327 320 308 305 319 318 314 318